Location: Eberbach
(49.4690°N, 8.9930°E)
Time: 00:51:30
(UTC+02:00)

ISS - Pass Details

Date: 03 October 2021
Orbit: 417 x 423 km, 51.6° (Epoch: 20 October)

Event Time Altitude Azimuth Distance (km) Brightness Sun altitude
Rises 20:10:41 0° 288° (WNW) 2,366 1.9 -12.6°
Reaches altitude 10° 20:12:52 10° 280° (W) 1,501 0.6 -12.9°
Maximum altitude 20:16:01 37° 212° (SSW) 666 -2.6 -13.5°
Enters shadow 20:18:21 16° 149° (SSE) 1,201 -1.8 -13.8°
